Location: Kristinehamn
(59.3168°N, 14.1075°E)
Time: 19:15:26
(UTC+01:00)

ISS - Visible Passes

Search period start: 29 November 2021 00:00
Search period end: 09 December 2021 00:00
Orbit: 417 x 423 km, 51.6° (Epoch: 29 November)

Date Brightness Start Highest point End Pass type
(mag) Time Alt. Az. Time Alt. Az. Time Alt. Az.
29 Nov -1.7 17:06:54 10° SW 17:09:35 22° S 17:11:56 12° SE visible
29 Nov -1.3 18:43:10 10° WSW 18:44:55 18° SSW 18:44:55 18° SSW visible
30 Nov -1.5 16:20:02 10° SW 16:22:35 20° SSE 16:25:09 10° ESE visible
30 Nov -1.8 17:56:03 10° WSW 17:58:43 22° S 17:59:39 19° SSE visible
01 Dec -1.7 17:08:59 10° SW 17:11:43 22° S 17:14:26 10° SE visible
01 Dec -1.0 18:45:45 10° WSW 18:47:24 15° SSW 18:47:24 15° SSW visible
02 Dec -1.6 16:21:57 10° SW 16:24:41 23° S 16:27:24 10° SE visible
02 Dec -1.3 17:58:26 10° WSW 18:00:47 18° SSW 18:02:14 14° SSE visible
03 Dec -1.3 17:11:13 10° WSW 17:13:46 20° SSW 17:16:19 10° SE visible
04 Dec -1.4 16:24:03 10° WSW 16:26:44 21° S 16:29:24 10° SE visible
04 Dec -0.8 18:01:18 10° SW 18:02:43 12° SSW 18:04:08 10° S visible
05 Dec -0.9 17:13:44 10° WSW 17:15:44 15° SSW 17:17:44 10° SSE visible
06 Dec -0.9 16:26:22 10° WSW 16:28:42 17° SSW 16:31:02 10° SSE visible
08 Dec -0.5 16:29:11 10° SW 16:30:33 12° SSW 16:31:56 10° S visible
